When you browse on this site, cookies collect data to enhance your experience and personalize the content and advertising you see.
Visit our Privacy Policy to learn more. By continuing to use the site, you agree to this use of cookies and data.
  • In United Kingdom
  • List of Countries
  • For 7 days
  • Water Temperature
  • Weather Map
  • Weather Widgets
  • user-avatar
    Login

    Hourly Weather Pivneva Hora

    Today, 26 May, Tuesday

    Time Temperature Precipitation Wind Pressure Humidity
    00:00 +7°C° 0 mm 2 mps 747 mmHg 91%
    01:00 +7°C° 0 mm 2 mps 747 mmHg 91%
    02:00 +7°C° 0 mm 2 mps 747 mmHg 92%
    03:00 +7°C° 0.1 mm 3 mps 747 mmHg 92%
    04:00 +7°C° 0.1 mm 4 mps 747 mmHg 92%
    05:00 +7°C° 0.1 mm 4 mps 747 mmHg 92%
    06:00 +8°C° 0.8 mm 5 mps 747 mmHg 93%
    07:00 +8°C° 0.8 mm 5 mps 747 mmHg 94%
    08:00 +8°C° 0 mm 5 mps 748 mmHg 96%
    09:00 +9°C° 0.4 mm 5 mps 748 mmHg 95%
    10:00 +9°C° 0.4 mm 5 mps 748 mmHg 94%
    11:00 +10°C° 0.4 mm 5 mps 748 mmHg 93%
    12:00 +11°C° 0.3 mm 4 mps 748 mmHg 93%
    13:00 +11°C° 0.3 mm 4 mps 748 mmHg 93%
    14:00 +11°C° 0 mm 4 mps 748 mmHg 93%
    15:00 +11°C° 0.1 mm 4 mps 748 mmHg 92%
    16:00 +12°C° 0.1 mm 3 mps 748 mmHg 91%
    17:00 +12°C° 0.1 mm 3 mps 748 mmHg 90%
    18:00 +12°C° 0 mm 2 mps 748 mmHg 92%
    19:00 +12°C° 0 mm 2 mps 749 mmHg 93%
    20:00 +11°C° 0 mm 1 mps 749 mmHg 94%
    21:00 +10°C° 0.1 mm 2 mps 749 mmHg 94%
    22:00 +10°C° 0.1 mm 2 mps 749 mmHg 95%
    23:00 +10°C° 0.1 mm 2 mps 749 mmHg 95%

    Tomorrow, 27 May, Wednesday

    Time Temperature Precipitation Wind Pressure Humidity
    00:00 +10°C° 0.1 mm 2 mps 749 mmHg 95%
    01:00 +10°C° 0.1 mm 2 mps 749 mmHg 95%
    02:00 +10°C° 0.1 mm 2 mps 748 mmHg 95%
    03:00 +9°C° 0 mm 2 mps 748 mmHg 95%
    04:00 +9°C° 0 mm 2 mps 749 mmHg 94%
    05:00 +9°C° 0 mm 2 mps 749 mmHg 94%
    06:00 +10°C° 0 mm 2 mps 749 mmHg 91%
    07:00 +11°C° 0 mm 3 mps 749 mmHg 88%
    08:00 +12°C° 0 mm 3 mps 749 mmHg 85%
    09:00 +13°C° 0.2 mm 3 mps 749 mmHg 81%
    10:00 +14°C° 0.2 mm 3 mps 749 mmHg 77%
    11:00 +14°C° 0.2 mm 3 mps 749 mmHg 73%
    12:00 +16°C° 0.4 mm 3 mps 748 mmHg 72%
    13:00 +16°C° 0.4 mm 3 mps 748 mmHg 70%
    14:00 +17°C° 0.4 mm 3 mps 748 mmHg 69%
    15:00 +17°C° 0.3 mm 3 mps 748 mmHg 71%
    16:00 +17°C° 0.3 mm 3 mps 747 mmHg 72%
    17:00 +17°C° 0.3 mm 3 mps 747 mmHg 74%
    18:00 +14°C° 0.3 mm 3 mps 747 mmHg 79%
    19:00 +14°C° 0.3 mm 2 mps 747 mmHg 83%
    20:00 +13°C° 0.3 mm 2 mps 747 mmHg 88%
    21:00 +13°C° 0.1 mm 2 mps 747 mmHg 89%
    22:00 +12°C° 0.1 mm 1 mps 747 mmHg 90%
    23:00 +11°C° 0.1 mm 1 mps 747 mmHg 91%

    Day after tomorrow, 28 May, Thursday

    Time Temperature Precipitation Wind Pressure Humidity
    00:00 +11°C° 0 mm 1 mps 747 mmHg 92%
    01:00 +10°C° 0 mm 2 mps 747 mmHg 92%
    02:00 +9°C° 0 mm 2 mps 747 mmHg 93%
    03:00 +9°C° 0 mm 2 mps 747 mmHg 93%
    04:00 +9°C° 0 mm 2 mps 746 mmHg 94%
    05:00 +8°C° 0 mm 2 mps 746 mmHg 94%
    06:00 +10°C° 0 mm 2 mps 746 mmHg 91%
    07:00 +12°C° 0 mm 3 mps 746 mmHg 88%
    08:00 +13°C° 0 mm 3 mps 746 mmHg 84%
    09:00 +14°C° 0.4 mm 3 mps 746 mmHg 78%
    10:00 +17°C° 0.4 mm 4 mps 745 mmHg 71%
    11:00 +18°C° 0.4 mm 4 mps 745 mmHg 65%
    12:00 +18°C° 0.1 mm 4 mps 744 mmHg 63%
    13:00 +19°C° 0.1 mm 4 mps 744 mmHg 62%
    14:00 +19°C° 0.1 mm 5 mps 743 mmHg 61%
    15:00 +19°C° 0.3 mm 5 mps 743 mmHg 64%
    16:00 +17°C° 0.3 mm 5 mps 743 mmHg 68%
    17:00 +17°C° 0.3 mm 5 mps 743 mmHg 72%
    18:00 +16°C° 0.2 mm 5 mps 742 mmHg 77%
    19:00 +14°C° 0.2 mm 5 mps 742 mmHg 82%
    20:00 +13°C° 0.2 mm 4 mps 742 mmHg 88%
    21:00 +12°C° 0 mm 5 mps 742 mmHg 90%
    22:00 +10°C° 0 mm 5 mps 742 mmHg 91%
    23:00 +10°C° 0 mm 5 mps 742 mmHg 93%

    29 May, Friday

    Time Temperature Precipitation Wind Pressure Humidity
    00:00 +9°C° 0 mm 5 mps 742 mmHg 94%
    01:00 +9°C° 0 mm 5 mps 741 mmHg 94%
    02:00 +9°C° 0 mm 6 mps 741 mmHg 95%
    03:00 +9°C° 0 mm 6 mps 741 mmHg 95%
    04:00 +8°C° 0 mm 5 mps 741 mmHg 96%
    05:00 +8°C° 0 mm 5 mps 741 mmHg 96%
    06:00 +9°C° 0 mm 6 mps 741 mmHg 94%
    07:00 +10°C° 0 mm 6 mps 741 mmHg 92%
    08:00 +10°C° 0 mm 7 mps 741 mmHg 90%
    09:00 +11°C° 0 mm 7 mps 741 mmHg 88%
    10:00 +11°C° 0 mm 7 mps 741 mmHg 85%
    11:00 +12°C° 0 mm 7 mps 741 mmHg 83%
    12:00 +14°C° 0.4 mm 7 mps 741 mmHg 82%
    13:00 +14°C° 0.4 mm 6 mps 741 mmHg 80%
    14:00 +15°C° 0.4 mm 6 mps 741 mmHg 79%
    15:00 +15°C° 0.8 mm 6 mps 741 mmHg 80%
    16:00 +15°C° 0.8 mm 6 mps 741 mmHg 81%
    17:00 +15°C° 0.8 mm 6 mps 741 mmHg 82%
    18:00 +14°C° 0.2 mm 5 mps 741 mmHg 85%
    19:00 +13°C° 0.2 mm 4 mps 741 mmHg 88%
    20:00 +12°C° 0.2 mm 4 mps 741 mmHg 91%
    21:00 +11°C° 0 mm 4 mps 741 mmHg 92%
    22:00 +11°C° 0 mm 4 mps 742 mmHg 94%
    23:00 +10°C° 0 mm 4 mps 742 mmHg 95%

    30 May, Saturday

    Time Temperature Precipitation Wind Pressure Humidity
    00:00 +8°C° 0 mm 4 mps 742 mmHg 95%
    01:00 +8°C° 0 mm 4 mps 742 mmHg 95%
    02:00 +8°C° 0 mm 4 mps 741 mmHg 95%
    03:00 +7°C° 0 mm 4 mps 742 mmHg 95%
    04:00 +7°C° 0 mm 5 mps 742 mmHg 95%
    05:00 +7°C° 0 mm 5 mps 742 mmHg 94%
    06:00 +8°C° 0 mm 5 mps 742 mmHg 91%
    07:00 +9°C° 0 mm 5 mps 742 mmHg 88%
    08:00 +10°C° 0 mm 6 mps 742 mmHg 84%
    09:00 +11°C° 0 mm 6 mps 742 mmHg 80%
    10:00 +13°C° 0 mm 6 mps 742 mmHg 76%
    11:00 +12°C° 0 mm 7 mps 742 mmHg 72%
    12:00 +12°C° 0 mm 7 mps 742 mmHg 73%
    13:00 +13°C° 0 mm 6 mps 741 mmHg 73%
    14:00 +13°C° 0 mm 6 mps 741 mmHg 74%
    15:00 +11°C° 0 mm 6 mps 741 mmHg 76%
    16:00 +10°C° 0 mm 6 mps 741 mmHg 77%
    17:00 +10°C° 0 mm 7 mps 741 mmHg 78%
    18:00 +9°C° 0 mm 6 mps 741 mmHg 79%
    19:00 +9°C° 0 mm 5 mps 740 mmHg 81%
    20:00 +8°C° 0 mm 4 mps 740 mmHg 82%
    21:00 +8°C° 0 mm 5 mps 740 mmHg 85%
    22:00 +8°C° 0 mm 5 mps 740 mmHg 87%
    23:00 +7°C° 0 mm 5 mps 740 mmHg 90%

    31 May, Sunday

    Time Temperature Precipitation Wind Pressure Humidity
    00:00 +8°C° 0 mm 5 mps 739 mmHg 90%
    01:00 +8°C° 0 mm 5 mps 738 mmHg 90%
    02:00 +8°C° 0 mm 5 mps 738 mmHg 90%
    03:00 +9°C° 0 mm 6 mps 737 mmHg 90%
    04:00 +9°C° 0 mm 6 mps 737 mmHg 90%
    05:00 +9°C° 0 mm 6 mps 737 mmHg 90%
    06:00 +10°C° 0.1 mm 6 mps 736 mmHg 90%
    07:00 +10°C° 0.1 mm 6 mps 736 mmHg 90%
    08:00 +11°C° 0.1 mm 6 mps 736 mmHg 90%
    09:00 +11°C° 0.3 mm 6 mps 736 mmHg 91%
    10:00 +11°C° 0.3 mm 6 mps 736 mmHg 91%
    11:00 +11°C° 0.3 mm 6 mps 736 mmHg 92%
    12:00 +11°C° 1 mm 6 mps 736 mmHg 93%
    13:00 +11°C° 1 mm 7 mps 736 mmHg 93%
    14:00 +10°C° 1 mm 7 mps 737 mmHg 94%
    15:00 +10°C° 1.9 mm 6 mps 737 mmHg 95%
    16:00 +10°C° 1.9 mm 6 mps 737 mmHg 95%
    17:00 +9°C° 1.9 mm 6 mps 737 mmHg 96%
    18:00 +9°C° 1.9 mm 6 mps 737 mmHg 96%
    19:00 +9°C° 1.9 mm 5 mps 738 mmHg 97%
    20:00 +10°C° 1.9 mm 4 mps 738 mmHg 98%
    21:00 +11°C° 0.9 mm 4 mps 738 mmHg 98%
    22:00 +11°C° 0.9 mm 4 mps 738 mmHg 98%
    23:00 +12°C° 0.9 mm 3 mps 738 mmHg 98%
    Show more